| time (UTC) | temp F | wind direction | speed MPH | gust MPH | rain 1hr in | rain 24hr in | rain mn in | humidity % | barometer mb |
| 20260901161031 | 88 | 233 | 2.0 | 5.0 | 0.00 | 0.16 | 0.06 | 77 | 1015.2 |
| 20260901160531 | 88 | 166 | 1.0 | 4.0 | 0.00 | 0.16 | 0.06 | 79 | 1015.3 |
| 20260901160058 | 87 | 0 | 1.0 | 3.0 | 0.00 | 0.16 | 0.06 | 79 | 1015.4 |
| 20260901155529 | 87 | 27 | 1.0 | 5.0 | 0.00 | 0.20 | 0.06 | 81 | 1015.4 |
| 20260901155033 | 86 | 233 | 2.0 | 5.0 | 0.00 | 0.20 | 0.06 | 79 | 1015.4 |
| 20260901154557 | 86 | 211 | 2.0 | 5.0 | 0.00 | 0.20 | 0.06 | 81 | 1015.3 |
| 20260901154029 | 86 | 191 | 3.0 | 5.0 | 0.00 | 0.20 | 0.06 | 81 | 1015.2 |
| 20260901153531 | 86 | 206 | 1.0 | 5.0 | 0.00 | 0.20 | 0.06 | 80 | 1015.3 |
| 20260901153110 | 86 | 217 | 2.0 | 4.0 | 0.00 | 0.20 | 0.06 | 82 | 1015.1 |
| 20260901152530 | 85 | 83 | 1.0 | 4.0 | 0.00 | 0.20 | 0.06 | 81 | 1015.2 |
| 20260901152030 | 85 | 220 | 0.0 | 4.0 | 0.00 | 0.20 | 0.06 | 82 | 1015.2 |
| 20260901151555 | 85 | 224 | 0.0 | 4.0 | 0.00 | 0.20 | 0.06 | 81 | 1015.1 |
| 20260901151031 | 85 | 176 | 0.0 | 4.0 | 0.00 | 0.20 | 0.06 | 84 | 1015.1 |
| 20260901150529 | 84 | 212 | 0.0 | 3.0 | 0.00 | 0.20 | 0.06 | 83 | 1015.1 |
| 20260901150054 | 84 | 59 | 0.0 | 4.0 | 0.00 | 0.20 | 0.06 | 83 | 1015.1 |
| 20260901145529 | 84 | 217 | 2.0 | 4.0 | 0.00 | 0.24 | 0.06 | 85 | 1015.2 |
| 20260901145031 | 83 | 199 | 1.0 | 4.0 | 0.00 | 0.24 | 0.06 | 87 | 1015.1 |
| 20260901144555 | 83 | 190 | 2.0 | 4.0 | 0.00 | 0.24 | 0.06 | 89 | 1015.0 |
| 20260901144030 | 82 | 193 | 1.0 | 5.0 | 0.00 | 0.24 | 0.06 | 92 | 1015.0 |
| 20260901143527 | 80 | 237 | 1.0 | 5.0 | 0.00 | 0.24 | 0.06 | 99 | 1015.0 |
| 20260901143045 | 79 | 167 | 2.0 | 5.0 | 0.00 | 0.24 | 0.06 | 100 | 1015.0 |
| 20260901142528 | 78 | 191 | 1.0 | 5.0 | 0.00 | 0.24 | 0.06 | 100 | 1015.0 |
| 20260901142030 | 77 | 321 | 2.0 | 5.0 | 0.00 | 0.24 | 0.06 | 100 | 1015.0 |
| 20260901141552 | 77 | 197 | 0.0 | 5.0 | 0.00 | 0.24 | 0.06 | 100 | 1015.1 |
| 20260901141030 | 76 | 221 | 1.0 | 3.0 | 0.00 | 0.24 | 0.06 | 100 | 1015.0 |
| 20260901140531 | 76 | 0 | 0.0 | 3.0 | 0.00 | 0.24 | 0.06 | 100 | 1015.1 |
| 20260901140047 | 76 | 217 | 1.0 | 6.0 | 0.00 | 0.24 | 0.06 | 100 | 1015.1 |
| 20260901135530 | 75 | 204 | 1.0 | 6.0 | 0.00 | 0.35 | 0.06 | 100 | 1015.0 |
| 20260901135030 | 75 | 172 | 1.0 | 3.0 | 0.00 | 0.35 | 0.06 | 100 | 1015.1 |
| 20260901134552 | 75 | 190 | 0.0 | 2.0 | 0.00 | 0.35 | 0.06 | 100 | 1015.2 |
| 20260901134028 | 74 | 229 | 0.0 | 3.0 | 0.00 | 0.35 | 0.06 | 100 | 1015.2 |
| 20260901133618 | 74 | 167 | 0.0 | 3.0 | 0.00 | 0.35 | 0.06 | 100 | 1015.1 |
| 20260901133050 | 74 | 207 | 0.0 | 2.0 | 0.00 | 0.35 | 0.06 | 100 | 1015.1 |
| 20260901132528 | 74 | 0 | 0.0 | 3.0 | 0.00 | 0.35 | 0.06 | 100 | 1015.1 |
| 20260901132030 | 74 | 218 | 0.0 | 3.0 | 0.00 | 0.35 | 0.06 | 100 | 1015.2 |
| 20260901131547 | 73 | 0 | 1.0 | 3.0 | 0.00 | 0.35 | 0.06 | 100 | 1015.4 |
| 20260901131028 | 73 | 228 | 0.0 | 2.0 | 0.00 | 0.35 | 0.06 | 100 | 1015.3 |
| 20260901130530 | 73 | 0 | 0.0 | 2.0 | 0.00 | 0.35 | 0.06 | 100 | 1015.3 |
| 20260901130052 | 73 | 0 | 0.0 | 1.0 | 0.00 | 0.35 | 0.06 | 100 | 1015.4 |
| 20260901125528 | 73 | 0 | 0.0 | 2.0 | 0.00 | 0.35 | 0.06 | 100 | 1015.5 |
| 20260901125030 | 73 | 0 | 0.0 | 2.0 | 0.00 | 0.35 | 0.06 | 100 | 1015.5 |
| 20260901124549 | 73 | 0 | 0.0 | 2.0 | 0.00 | 0.35 | 0.06 | 100 | 1015.5 |
| 20260901124029 | 73 | 0 | 0.0 | 1.0 | 0.00 | 0.35 | 0.06 | 100 | 1015.3 |
| 20260901123528 | 73 | 0 | 0.0 | 0.0 | 0.00 | 0.35 | 0.06 | 100 | 1015.3 |
| 20260901123045 | 73 | 0 | 0.0 | 0.0 | 0.00 | 0.35 | 0.06 | 100 | 1015.2 |
| 20260901122529 | 73 | 0 | 0.0 | 0.0 | 0.00 | 0.35 | 0.06 | 100 | 1015.2 |
| 20260901122028 | 73 | 0 | 0.0 | 0.0 | 0.01 | 0.35 | 0.06 | 100 | 1015.1 |
| 20260901121553 | 72 | 0 | 0.0 | 0.0 | 0.01 | 0.35 | 0.06 | 100 | 1015.1 |
| 20260901121029 | 72 | 0 | 0.0 | 0.0 | 0.01 | 0.35 | 0.06 | 100 | 1015.0 |
| 20260901120529 | 72 | 0 | 0.0 | 0.0 | 0.01 | 0.35 | 0.06 | 100 | 1015.0 |
| 20260901120050 | 72 | 0 | 0.0 | 0.0 | 0.01 | 0.35 | 0.06 | 100 | 1015.0 |
| 20260901115530 | 72 | 0 | 0.0 | 0.0 | 0.01 | 0.35 | 0.06 | 100 | 1014.8 |
| 20260901115030 | 72 | 0 | 0.0 | 0.0 | 0.01 | 0.35 | 0.06 | 100 | 1014.7 |
| 20260901114543 | 73 | 0 | 0.0 | 0.0 | 0.01 | 0.35 | 0.06 | 100 | 1014.7 |
| 20260901114029 | 73 | 0 | 0.0 | 0.0 | 0.01 | 0.35 | 0.06 | 100 | 1014.6 |
| 20260901113529 | 73 | 0 | 0.0 | 1.0 | 0.01 | 0.35 | 0.06 | 100 | 1014.5 |
| 20260901113053 | 73 | 0 | 0.0 | 1.0 | 0.01 | 0.35 | 0.06 | 100 | 1014.5 |
| 20260901112528 | 72 | 0 | 0.0 | 1.0 | 0.01 | 0.35 | 0.06 | 100 | 1014.6 |
| 20260901112030 | 72 | 0 | 0.0 | 0.0 | 0.00 | 0.34 | 0.05 | 100 | 1014.7 |
| 20260901111551 | 72 | 0 | 0.0 | 2.0 | 0.00 | 0.34 | 0.05 | 100 | 1014.5 |
| 20260901111027 | 73 | 0 | 0.0 | 2.0 | 0.00 | 0.34 | 0.05 | 100 | 1014.4 |
| 20260901110530 | 72 | 223 | 0.0 | 1.0 | 0.00 | 0.34 | 0.05 | 100 | 1014.3 |
| 20260901110048 | 72 | 0 | 0.0 | 1.0 | 0.01 | 0.34 | 0.05 | 100 | 1014.1 |
| 20260901105530 | 73 | 0 | 0.0 | 1.0 | 0.01 | 0.34 | 0.05 | 100 | 1014.2 |
| 20260901105030 | 72 | 251 | 0.0 | 1.0 | 0.03 | 0.34 | 0.05 | 100 | 1014.2 |
| 20260901104547 | 73 | 0 | 0.0 | 0.0 | 0.03 | 0.34 | 0.05 | 100 | 1014.1 |
| 20260901104030 | 73 | 0 | 0.0 | 2.0 | 0.03 | 0.34 | 0.05 | 100 | 1014.0 |
| 20260901103529 | 73 | 0 | 0.0 | 2.0 | 0.03 | 0.34 | 0.05 | 100 | 1014.0 |
| 20260901103042 | 73 | 0 | 0.0 | 1.0 | 0.03 | 0.34 | 0.05 | 100 | 1013.9 |
| 20260901102532 | 73 | 0 | 0.0 | 3.0 | 0.03 | 0.34 | 0.05 | 100 | 1014.1 |
| 20260901102031 | 73 | 159 | 0.0 | 3.0 | 0.03 | 0.34 | 0.05 | 100 | 1013.9 |
| 20260901101609 | 73 | 0 | 0.0 | 2.0 | 0.03 | 0.34 | 0.05 | 100 | 1014.0 |
| 20260901101030 | 73 | 0 | 0.0 | 2.0 | 0.03 | 0.34 | 0.05 | 100 | 1014.0 |
| 20260901100532 | 73 | 0 | 0.0 | 3.0 | 0.03 | 0.34 | 0.05 | 100 | 1014.1 |
| 20260901100046 | 73 | 141 | 1.0 | 3.0 | 0.02 | 0.33 | 0.04 | 100 | 1014.2 |
| 20260901095530 | 73 | 148 | 0.0 | 1.0 | 0.02 | 0.33 | 0.04 | 100 | 1014.1 |
| 20260901095031 | 73 | 0 | 0.0 | 1.0 | 0.00 | 0.31 | 0.02 | 100 | 1014.1 |
| 20260901094544 | 73 | 0 | 0.0 | 1.0 | 0.00 | 0.31 | 0.02 | 100 | 1014.2 |
| 20260901094029 | 73 | 0 | 0.0 | 1.0 | 0.00 | 0.31 | 0.02 | 100 | 1014.2 |
| 20260901093529 | 73 | 196 | 0.0 | 0.0 | 0.00 | 0.31 | 0.02 | 100 | 1014.1 |
| 20260901093054 | 73 | 0 | 0.0 | 0.0 | 0.00 | 0.31 | 0.02 | 100 | 1014.1 |
| 20260901092526 | 73 | 0 | 0.0 | 1.0 | 0.02 | 0.31 | 0.02 | 100 | 1014.0 |
| 20260901092030 | 73 | 0 | 0.0 | 1.0 | 0.02 | 0.31 | 0.02 | 100 | 1014.1 |
| 20260901091550 | 73 | 0 | 0.0 | 0.0 | 0.02 | 0.31 | 0.02 | 100 | 1014.1 |
| 20260901091027 | 73 | 0 | 0.0 | 0.0 | 0.02 | 0.31 | 0.02 | 100 | 1014.1 |
| 20260901090528 | 73 | 0 | 0.0 | 1.0 | 0.02 | 0.31 | 0.02 | 100 | 1013.8 |
| 20260901090044 | 73 | 0 | 0.0 | 1.0 | 0.02 | 0.31 | 0.02 | 100 | 1013.8 |
| 20260901085529 | 73 | 0 | 0.0 | 1.0 | 0.02 | 0.31 | 0.02 | 100 | 1013.9 |
| 20260901085027 | 73 | 0 | 0.0 | 1.0 | 0.02 | 0.31 | 0.02 | 100 | 1013.9 |
| 20260901084553 | 74 | 0 | 0.0 | 1.0 | 0.02 | 0.31 | 0.02 | 99 | 1013.9 |
| 20260901084029 | 74 | 225 | 0.0 | 3.0 | 0.02 | 0.31 | 0.02 | 98 | 1013.8 |
| 20260901083530 | 75 | 46 | 0.0 | 4.0 | 0.02 | 0.31 | 0.02 | 97 | 1013.9 |
| 20260901083053 | 76 | 250 | 1.0 | 4.0 | 0.02 | 0.31 | 0.02 | 90 | 1014.0 |
| 20260901082530 | 76 | 220 | 2.0 | 5.0 | 0.00 | 0.29 | 0.00 | 89 | 1013.9 |
| 20260901082028 | 76 | 213 | 1.0 | 5.0 | 0.00 | 0.29 | 0.00 | 89 | 1013.8 |
| 20260901081551 | 76 | 236 | 0.0 | 3.0 | 0.00 | 0.29 | 0.00 | 89 | 1013.9 |
| 20260901081030 | 76 | 0 | 0.0 | 3.0 | 0.00 | 0.29 | 0.00 | 89 | 1013.9 |
| 20260901080530 | 76 | 0 | 1.0 | 3.0 | 0.00 | 0.29 | 0.00 | 89 | 1013.8 |
| 20260901080055 | 76 | 0 | 0.0 | 1.0 | 0.00 | 0.29 | 0.00 | 90 | 1013.8 |
| 20260901075530 | 76 | 0 | 0.0 | 1.0 | 0.00 | 0.29 | 0.00 | 90 | 1013.8 |
| 20260901075034 | 76 | 0 | 0.0 | 1.0 | 0.00 | 0.29 | 0.00 | 90 | 1013.7 |
| 20260901074613 | 76 | 0 | 0.0 | 2.0 | 0.00 | 0.29 | 0.00 | 89 | 1013.7 |
| 20260901074029 | 76 | 212 | 0.0 | 3.0 | 0.00 | 0.29 | 0.00 | 89 | 1013.8 |
| 20260901073527 | 76 | 0 | 0.0 | 3.0 | 0.00 | 0.29 | 0.00 | 89 | 1013.8 |
| 20260901073052 | 76 | 0 | 0.0 | 2.0 | 0.00 | 0.29 | 0.00 | 90 | 1013.8 |
| 20260901072527 | 76 | 128 | 0.0 | 4.0 | 0.00 | 0.29 | 0.00 | 89 | 1013.9 |
| 20260901072027 | 76 | 165 | 1.0 | 4.0 | 0.00 | 0.29 | 0.00 | 89 | 1013.9 |
| 20260901071547 | 76 | 239 | 0.0 | 3.0 | 0.00 | 0.29 | 0.00 | 89 | 1013.7 |
| 20260901071030 | 76 | 233 | 0.0 | 3.0 | 0.00 | 0.29 | 0.00 | 89 | 1013.7 |
| 20260901070529 | 76 | 227 | 1.0 | 3.0 | 0.00 | 0.29 | 0.00 | 90 | 1013.7 |
| 20260901070046 | 76 | 0 | 0.0 | 5.0 | 0.00 | 0.29 | 0.00 | 90 | 1013.7 |
| 20260901065528 | 76 | 240 | 1.0 | 5.0 | 0.00 | 0.29 | 0.00 | 90 | 1013.7 |
| 20260901065029 | 76 | 236 | 0.0 | 2.0 | 0.00 | 0.29 | 0.00 | 91 | 1013.6 |
| 20260901064543 | 76 | 230 | 0.0 | 3.0 | 0.00 | 0.29 | 0.00 | 91 | 1013.7 |
| 20260901064030 | 76 | 201 | 0.0 | 3.0 | 0.00 | 0.29 | 0.00 | 91 | 1013.7 |
| 20260901063529 | 76 | 0 | 0.0 | 3.0 | 0.00 | 0.29 | 0.00 | 91 | 1013.7 |
| 20260901063101 | 76 | 200 | 0.0 | 1.0 | 0.00 | 0.29 | 0.00 | 91 | 1013.6 |
| 20260901062529 | 76 | 0 | 0.0 | 2.0 | 0.00 | 0.29 | 0.00 | 91 | 1013.5 |
| 20260901062033 | 76 | 0 | 0.0 | 3.0 | 0.00 | 0.29 | 0.00 | 91 | 1013.5 |
| 20260901061549 | 76 | 158 | 0.0 | 3.0 | 0.00 | 0.29 | 0.00 | 91 | 1013.5 |
| 20260901061030 | 76 | 217 | 0.0 | 3.0 | 0.00 | 0.29 | 0.00 | 91 | 1013.6 |
| 20260901060530 | 76 | 172 | 0.0 | 2.0 | 0.00 | 0.29 | 0.00 | 91 | 1013.5 |
| 20260901060050 | 76 | 226 | 0.0 | 1.0 | 0.00 | 0.29 | 0.00 | 92 | 1013.6 |
| 20260901055529 | 76 | 0 | 0.0 | 2.0 | 0.00 | 0.29 | 0.00 | 92 | 1013.6 |
| 20260901055031 | 76 | 229 | 0.0 | 2.0 | 0.00 | 0.29 | 0.00 | 92 | 1013.5 |
| 20260901054546 | 76 | 152 | 0.0 | 2.0 | 0.00 | 0.29 | 0.00 | 92 | 1013.7 |
| 20260901054028 | 76 | 171 | 0.0 | 2.0 | 0.00 | 0.29 | 0.00 | 92 | 1013.7 |
| 20260901053529 | 76 | 158 | 0.0 | 2.0 | 0.00 | 0.29 | 0.00 | 92 | 1013.7 |
| 20260901053111 | 76 | 155 | 0.0 | 2.0 | 0.00 | 0.29 | 0.00 | 92 | 1013.7 |
| 20260901052529 | 76 | 219 | 0.0 | 1.0 | 0.00 | 0.29 | 0.00 | 93 | 1013.5 |
| 20260901052031 | 76 | 143 | 0.0 | 1.0 | 0.00 | 0.29 | 0.00 | 93 | 1013.7 |
| 20260901051609 | 76 | 138 | 0.0 | 1.0 | 0.00 | 0.29 | 0.00 | 93 | 1013.5 |
| 20260901051029 | 76 | 0 | 0.0 | 0.0 | 0.00 | 0.29 | 0.00 | 93 | 1013.8 |
| 20260901050529 | 76 | 0 | 0.0 | 0.0 | 0.00 | 0.29 | 0.00 | 93 | 1013.7 |
| 20260901050052 | 76 | 0 | 0.0 | 0.0 | 0.00 | 0.29 | 0.00 | 93 | 1013.7 |
| 20260901045529 | 76 | 0 | 0.0 | 0.0 | 0.00 | 0.29 | 0.29 | 93 | 1013.9 |
| 20260901045031 | 76 | 0 | 0.0 | 0.0 | 0.00 | 0.29 | 0.29 | 93 | 1013.8 |
| 20260901044547 | 76 | 0 | 0.0 | 0.0 | 0.00 | 0.29 | 0.29 | 94 | 1013.8 |
| 20260901044029 | 76 | 0 | 0.0 | 0.0 | 0.00 | 0.29 | 0.29 | 94 | 1013.9 |
| 20260901043529 | 76 | 0 | 0.0 | 0.0 | 0.00 | 0.29 | 0.29 | 94 | 1013.9 |
| 20260901043044 | 76 | 0 | 0.0 | 0.0 | 0.00 | 0.29 | 0.29 | 94 | 1013.9 |
| 20260901042529 | 76 | 0 | 0.0 | 0.0 | 0.00 | 0.29 | 0.29 | 95 | 1013.9 |
| 20260901042029 | 76 | 0 | 0.0 | 0.0 | 0.00 | 0.29 | 0.29 | 96 | 1014.0 |
| 20260901041608 | 76 | 0 | 0.0 | 0.0 | 0.00 | 0.29 | 0.29 | 96 | 1014.0 |
| 20260901041029 | 76 | 0 | 0.0 | 0.0 | 0.00 | 0.29 | 0.29 | 96 | 1014.0 |
| 20260901040529 | 76 | 0 | 0.0 | 0.0 | 0.00 | 0.29 | 0.29 | 96 | 1014.0 |
| 20260901040056 | 77 | 0 | 0.0 | 0.0 | 0.00 | 0.29 | 0.29 | 95 | 1013.9 |
| 20260901035527 | 77 | 0 | 0.0 | 0.0 | 0.00 | 0.29 | 0.29 | 95 | 1013.9 |
| 20260901035027 | 77 | 0 | 0.0 | 0.0 | 0.00 | 0.29 | 0.29 | 95 | 1013.9 |
| 20260901034547 | 77 | 0 | 0.0 | 0.0 | 0.00 | 0.29 | 0.29 | 95 | 1013.8 |
| 20260901034030 | 77 | 0 | 0.0 | 1.0 | 0.00 | 0.29 | 0.29 | 96 | 1013.7 |
| 20260901033530 | 77 | 0 | 0.0 | 1.0 | 0.00 | 0.29 | 0.29 | 96 | 1013.7 |
| 20260901033045 | 77 | 0 | 0.0 | 1.0 | 0.00 | 0.29 | 0.29 | 97 | 1013.8 |
| 20260901032530 | 77 | 0 | 0.0 | 1.0 | 0.00 | 0.29 | 0.29 | 99 | 1013.8 |
| 20260901032026 | 77 | 0 | 0.0 | 2.0 | 0.00 | 0.29 | 0.29 | 100 | 1013.9 |
| 20260901031554 | 77 | 229 | 0.0 | 2.0 | 0.00 | 0.29 | 0.29 | 100 | 1013.9 |
| 20260901031032 | 77 | 162 | 0.0 | 2.0 | 0.00 | 0.29 | 0.29 | 100 | 1013.9 |
| 20260901030529 | 77 | 0 | 0.0 | 2.0 | 0.00 | 0.29 | 0.29 | 100 | 1014.0 |
| 20260901030050 | 77 | 150 | 0.0 | 2.0 | 0.00 | 0.29 | 0.29 | 100 | 1013.9 |
| 20260901025527 | 77 | 206 | 0.0 | 2.0 | 0.00 | 0.30 | 0.29 | 100 | 1013.9 |
| 20260901025029 | 77 | 156 | 0.0 | 2.0 | 0.00 | 0.30 | 0.29 | 100 | 1014.0 |
| 20260901024546 | 77 | 0 | 0.0 | 4.0 | 0.00 | 0.30 | 0.29 | 100 | 1013.9 |
| 20260901024029 | 77 | 152 | 1.0 | 5.0 | 0.00 | 0.30 | 0.29 | 100 | 1014.0 |
| 20260901023526 | 77 | 207 | 2.0 | 5.0 | 0.00 | 0.30 | 0.29 | 100 | 1014.0 |
| 20260901023043 | 77 | 142 | 1.0 | 5.0 | 0.00 | 0.30 | 0.29 | 100 | 1013.9 |
| 20260901022526 | 76 | 210 | 1.0 | 5.0 | 0.00 | 0.30 | 0.29 | 100 | 1014.0 |
| 20260901022033 | 76 | 200 | 1.0 | 3.0 | 0.00 | 0.30 | 0.29 | 100 | 1014.0 |
| 20260901021542 | 76 | 162 | 0.0 | 1.0 | 0.00 | 0.30 | 0.29 | 100 | 1014.1 |
| 20260901021030 | 76 | 0 | 0.0 | 1.0 | 0.00 | 0.30 | 0.29 | 100 | 1014.1 |
| 20260901020530 | 76 | 0 | 0.0 | 1.0 | 0.00 | 0.30 | 0.29 | 100 | 1014.1 |
| 20260901020042 | 76 | 0 | 0.0 | 1.0 | 0.00 | 0.30 | 0.29 | 100 | 1014.0 |
| 20260901015529 | 76 | 0 | 0.0 | 0.0 | 0.00 | 0.31 | 0.29 | 100 | 1014.0 |
| 20260901015028 | 76 | 0 | 0.0 | 0.0 | 0.00 | 0.31 | 0.29 | 100 | 1014.0 |
| 20260901014559 | 76 | 0 | 0.0 | 0.0 | 0.00 | 0.31 | 0.29 | 100 | 1014.0 |
| 20260901014026 | 76 | 0 | 0.0 | 0.0 | 0.00 | 0.31 | 0.29 | 100 | 1014.0 |
| 20260901013527 | 75 | 0 | 0.0 | 0.0 | 0.00 | 0.31 | 0.29 | 100 | 1013.8 |
| 20260901013043 | 75 | 0 | 0.0 | 0.0 | 0.00 | 0.31 | 0.29 | 100 | 1013.9 |
| 20260901012526 | 76 | 0 | 0.0 | 0.0 | 0.00 | 0.31 | 0.29 | 100 | 1013.9 |
| 20260901012026 | 76 | 0 | 0.0 | 0.0 | 0.00 | 0.31 | 0.29 | 100 | 1013.8 |
| 20260901011541 | 76 | 0 | 0.0 | 0.0 | 0.00 | 0.31 | 0.29 | 100 | 1013.6 |
| 20260901011030 | 76 | 0 | 0.0 | 0.0 | 0.00 | 0.31 | 0.29 | 100 | 1013.6 |
| 20260901010527 | 76 | 0 | 0.0 | 0.0 | 0.00 | 0.31 | 0.29 | 100 | 1013.7 |
| 20260901010053 | 76 | 0 | 0.0 | 0.0 | 0.00 | 0.31 | 0.29 | 100 | 1013.7 |
| 20260901005527 | 76 | 0 | 0.0 | 0.0 | 0.00 | 0.31 | 0.29 | 100 | 1013.5 |
| 20260901005027 | 76 | 0 | 0.0 | 1.0 | 0.00 | 0.31 | 0.29 | 100 | 1013.5 |
| 20260901004548 | 76 | 0 | 0.0 | 3.0 | 0.00 | 0.31 | 0.29 | 100 | 1013.5 |
| 20260901004026 | 76 | 0 | 0.0 | 3.0 | 0.06 | 0.31 | 0.29 | 100 | 1013.4 |
| 20260901003528 | 76 | 165 | 0.0 | 3.0 | 0.07 | 0.31 | 0.29 | 100 | 1013.3 |
| 20260901003045 | 76 | 0 | 0.0 | 3.0 | 0.07 | 0.31 | 0.29 | 100 | 1013.3 |
| 20260901002529 | 76 | 226 | 0.0 | 3.0 | 0.07 | 0.31 | 0.29 | 100 | 1013.2 |
| 20260901002032 | 77 | 176 | 0.0 | 3.0 | 0.07 | 0.31 | 0.29 | 100 | 1013.3 |
| 20260901001551 | 77 | 150 | 0.0 | 4.0 | 0.07 | 0.31 | 0.29 | 100 | 1013.2 |
| 20260901001027 | 77 | 200 | 1.0 | 6.0 | 0.07 | 0.31 | 0.29 | 99 | 1013.3 |
| 20260901000528 | 77 | 191 | 2.0 | 8.0 | 0.07 | 0.31 | 0.29 | 99 | 1013.2 |
| 20260901000051 | 78 | 162 | 3.0 | 11.0 | 0.07 | 0.31 | 0.29 | 99 | 1013.2 |
| 20260831235526 | 78 | 172 | 4.0 | 11.0 | 0.07 | 0.31 | 0.29 | 98 | 1013.1 |
| 20260831235028 | 79 | 141 | 4.0 | 10.0 | 0.07 | 0.31 | 0.29 | 99 | 1013.1 |
| 20260831234552 | 79 | 157 | 3.0 | 7.0 | 0.07 | 0.31 | 0.29 | 99 | 1012.9 |
| 20260831234028 | 79 | 139 | 2.0 | 4.0 | 0.03 | 0.24 | 0.22 | 100 | 1013.6 |
| 20260831233529 | 79 | 62 | 0.0 | 3.0 | 0.03 | 0.24 | 0.22 | 100 | 1014.6 |
| 20260831233108 | 80 | 25 | 0.0 | 0.0 | 0.03 | 0.24 | 0.22 | 99 | 1014.2 |
| 20260831232528 | 80 | 0 | 0.0 | 0.0 | 0.03 | 0.24 | 0.22 | 99 | 1013.8 |
| 20260831232029 | 80 | 0 | 0.0 | 0.0 | 0.03 | 0.24 | 0.22 | 99 | 1013.7 |
| 20260831231546 | 80 | 0 | 0.0 | 0.0 | 0.03 | 0.24 | 0.22 | 99 | 1013.6 |
| 20260831231029 | 81 | 0 | 0.0 | 2.0 | 0.03 | 0.24 | 0.22 | 99 | 1013.5 |
| 20260831230529 | 80 | 0 | 0.0 | 2.0 | 0.03 | 0.24 | 0.22 | 98 | 1013.2 |
| 20260831230043 | 81 | 0 | 1.0 | 2.0 | 0.03 | 0.24 | 0.22 | 97 | 1013.1 |
| 20260831225527 | 82 | 198 | 0.0 | 1.0 | 0.03 | 0.24 | 0.22 | 95 | 1013.3 |
| 20260831225029 | 84 | 0 | 0.0 | 1.0 | 0.03 | 0.24 | 0.22 | 93 | 1013.2 |
| 20260831224554 | 88 | 0 | 0.0 | 3.0 | 0.03 | 0.24 | 0.22 | 88 | 1013.3 |
| 20260831224029 | 89 | 0 | 0.0 | 3.0 | 0.00 | 0.21 | 0.19 | 71 | 1013.5 |
| 20260831223529 | 89 | 224 | 0.0 | 3.0 | 0.00 | 0.21 | 0.19 | 70 | 1013.3 |
| 20260831223040 | 89 | 221 | 0.0 | 4.0 | 0.00 | 0.21 | 0.19 | 70 | 1013.4 |
| 20260831222529 | 90 | 0 | 0.0 | 4.0 | 0.00 | 0.21 | 0.19 | 70 | 1013.2 |
| 20260831222029 | 90 | 238 | 1.0 | 4.0 | 0.00 | 0.21 | 0.19 | 69 | 1013.1 |
| 20260831221549 | 90 | 203 | 2.0 | 6.0 | 0.00 | 0.21 | 0.19 | 69 | 1012.9 |
| 20260831221029 | 90 | 149 | 2.0 | 8.0 | 0.00 | 0.21 | 0.19 | 69 | 1012.8 |
| 20260831220531 | 90 | 240 | 3.0 | 8.0 | 0.00 | 0.21 | 0.19 | 68 | 1012.8 |
| 20260831220046 | 91 | 229 | 3.0 | 8.0 | 0.00 | 0.21 | 0.19 | 67 | 1012.7 |
| 20260831215529 | 91 | 186 | 3.0 | 7.0 | 0.00 | 0.21 | 0.19 | 66 | 1012.8 |
| 20260831215032 | 91 | 136 | 2.0 | 9.0 | 0.00 | 0.21 | 0.19 | 66 | 1012.8 |
| 20260831214553 | 91 | 198 | 3.0 | 9.0 | 0.00 | 0.21 | 0.19 | 65 | 1012.8 |
| 20260831214026 | 92 | 243 | 3.0 | 8.0 | 0.00 | 0.21 | 0.19 | 65 | 1012.8 |
| 20260831213526 | 92 | 192 | 2.0 | 6.0 | 0.00 | 0.21 | 0.19 | 65 | 1013.0 |
| 20260831213042 | 92 | 153 | 2.0 | 7.0 | 0.00 | 0.21 | 0.19 | 66 | 1012.9 |
| 20260831212527 | 91 | 253 | 2.0 | 7.0 | 0.00 | 0.21 | 0.19 | 65 | 1013.1 |
| 20260831212029 | 91 | 221 | 1.0 | 8.0 | 0.00 | 0.21 | 0.19 | 65 | 1013.1 |
| 20260831211547 | 91 | 198 | 2.0 | 8.0 | 0.00 | 0.21 | 0.19 | 64 | 1013.1 |
| 20260831211028 | 92 | 219 | 3.0 | 7.0 | 0.00 | 0.21 | 0.19 | 63 | 1013.2 |
| 20260831210529 | 92 | 210 | 2.0 | 7.0 | 0.00 | 0.21 | 0.19 | 67 | 1013.0 |
| 20260831210047 | 91 | 8 | 3.0 | 6.0 | 0.00 | 0.21 | 0.19 | 66 | 1013.2 |
| 20260831205529 | 91 | 212 | 1.0 | 6.0 | 0.00 | 0.21 | 0.19 | 68 | 1013.2 |
| 20260831205026 | 90 | 204 | 1.0 | 5.0 | 0.00 | 0.21 | 0.19 | 67 | 1013.1 |
| 20260831204542 | 90 | 268 | 2.0 | 5.0 | 0.00 | 0.21 | 0.19 | 68 | 1013.2 |
| 20260831204029 | 89 | 30 | 1.0 | 5.0 | 0.00 | 0.21 | 0.19 | 68 | 1013.3 |
| 20260831203525 | 90 | 340 | 2.0 | 6.0 | 0.00 | 0.21 | 0.19 | 67 | 1013.2 |
| 20260831203043 | 90 | 143 | 2.0 | 8.0 | 0.00 | 0.21 | 0.19 | 65 | 1013.3 |
| 20260831202527 | 91 | 172 | 2.0 | 9.0 | 0.00 | 0.21 | 0.19 | 65 | 1013.3 |
| 20260831202027 | 91 | 193 | 2.0 | 9.0 | 0.00 | 0.21 | 0.19 | 64 | 1013.4 |
| 20260831201549 | 91 | 233 | 4.0 | 9.0 | 0.00 | 0.21 | 0.19 | 65 | 1013.1 |
| 20260831201030 | 91 | 210 | 3.0 | 10.0 | 0.00 | 0.21 | 0.19 | 63 | 1013.0 |
| 20260831200529 | 91 | 210 | 3.0 | 10.0 | 0.00 | 0.21 | 0.19 | 65 | 1013.0 |
| 20260831200047 | 91 | 133 | 4.0 | 10.0 | 0.00 | 0.21 | 0.19 | 65 | 1013.0 |
| 20260831195532 | 90 | 150 | 4.0 | 10.0 | 0.00 | 0.21 | 0.19 | 66 | 1013.1 |
| 20260831195028 | 91 | 241 | 3.0 | 9.0 | 0.00 | 0.21 | 0.19 | 65 | 1013.1 |
| 20260831194555 | 91 | 259 | 4.0 | 9.0 | 0.00 | 0.21 | 0.19 | 63 | 1013.1 |
| 20260831194030 | 91 | 124 | 3.0 | 9.0 | 0.00 | 0.21 | 0.19 | 65 | 1013.2 |
| 20260831193529 | 91 | 174 | 3.0 | 9.0 | 0.00 | 0.21 | 0.19 | 65 | 1013.2 |
| 20260831193052 | 90 | 161 | 3.0 | 8.0 | 0.00 | 0.21 | 0.19 | 66 | 1013.1 |
| 20260831192528 | 90 | 257 | 3.0 | 7.0 | 0.00 | 0.21 | 0.19 | 65 | 1013.2 |
| 20260831192028 | 90 | 159 | 3.0 | 9.0 | 0.00 | 0.21 | 0.19 | 65 | 1013.3 |
| 20260831191547 | 90 | 223 | 3.0 | 9.0 | 0.00 | 0.21 | 0.19 | 67 | 1013.3 |
| 20260831191027 | 90 | 209 | 4.0 | 9.0 | 0.00 | 0.21 | 0.19 | 65 | 1013.3 |
| 20260831190526 | 90 | 259 | 3.0 | 11.0 | 0.00 | 0.21 | 0.19 | 65 | 1013.2 |
| 20260831190047 | 90 | 252 | 4.0 | 11.0 | 0.00 | 0.21 | 0.19 | 65 | 1013.2 |
| 20260831185529 | 90 | 192 | 4.0 | 12.0 | 0.00 | 0.21 | 0.19 | 66 | 1013.3 |
| 20260831185027 | 89 | 158 | 5.0 | 12.0 | 0.00 | 0.21 | 0.19 | 68 | 1013.3 |
| 20260831184542 | 89 | 264 | 5.0 | 12.0 | 0.00 | 0.21 | 0.19 | 66 | 1013.4 |
| 20260831184028 | 89 | 178 | 5.0 | 12.0 | 0.00 | 0.21 | 0.19 | 67 | 1013.4 |
| 20260831183527 | 89 | 160 | 3.0 | 8.0 | 0.00 | 0.21 | 0.19 | 69 | 1013.5 |
| 20260831183051 | 89 | 224 | 4.0 | 8.0 | 0.00 | 0.21 | 0.19 | 69 | 1013.7 |
| 20260831182530 | 88 | 155 | 3.0 | 10.0 | 0.00 | 0.21 | 0.19 | 69 | 1013.6 |
| 20260831182031 | 88 | 236 | 2.0 | 10.0 | 0.00 | 0.21 | 0.19 | 70 | 1013.5 |
| 20260831181605 | 87 | 124 | 3.0 | 11.0 | 0.00 | 0.21 | 0.19 | 70 | 1013.6 |
| 20260831181031 | 87 | 219 | 5.0 | 15.0 | 0.00 | 0.21 | 0.19 | 71 | 1013.5 |
| 20260831180528 | 86 | 124 | 5.0 | 15.0 | 0.00 | 0.21 | 0.19 | 70 | 1013.6 |
| 20260831180057 | 86 | 143 | 6.0 | 15.0 | 0.00 | 0.21 | 0.19 | 71 | 1013.7 |
| 20260831175530 | 85 | 141 | 5.0 | 12.0 | 0.00 | 0.21 | 0.19 | 72 | 1013.6 |
| 20260831175031 | 85 | 231 | 4.0 | 11.0 | 0.00 | 0.21 | 0.19 | 75 | 1013.6 |
| 20260831174552 | 84 | 233 | 4.0 | 11.0 | 0.00 | 0.21 | 0.19 | 76 | 1013.6 |
| 20260831174032 | 83 | 205 | 5.0 | 11.0 | 0.00 | 0.21 | 0.19 | 76 | 1013.7 |
| 20260831173528 | 82 | 183 | 5.0 | 10.0 | 0.00 | 0.21 | 0.19 | 76 | 1014.0 |
| 20260831173055 | 82 | 166 | 5.0 | 9.0 | 0.00 | 0.21 | 0.19 | 78 | 1014.1 |
| 20260831172530 | 81 | 113 | 4.0 | 9.0 | 0.00 | 0.21 | 0.19 | 80 | 1014.1 |
| 20260831172032 | 80 | 156 | 5.0 | 10.0 | 0.00 | 0.21 | 0.19 | 81 | 1014.2 |
| 20260831171546 | 80 | 198 | 5.0 | 10.0 | 0.00 | 0.21 | 0.19 | 83 | 1014.4 |
| 20260831171032 | 79 | 172 | 3.0 | 9.0 | 0.00 | 0.21 | 0.19 | 87 | 1014.7 |
| 20260831170528 | 77 | 215 | 4.0 | 7.0 | 0.00 | 0.21 | 0.19 | 97 | 1014.8 |
| 20260831170057 | 75 | 184 | 3.0 | 7.0 | 0.00 | 0.21 | 0.19 | 100 | 1014.9 |
| 20260831165529 | 75 | 162 | 3.0 | 7.0 | 0.00 | 0.21 | 0.19 | 100 | 1015.1 |
| 20260831165029 | 74 | 163 | 2.0 | 7.0 | 0.00 | 0.21 | 0.19 | 100 | 1015.0 |
| 20260831164550 | 73 | 156 | 3.0 | 7.0 | 0.00 | 0.21 | 0.19 | 99 | 1015.1 |
| 20260831164031 | 73 | 155 | 2.0 | 7.0 | 0.00 | 0.21 | 0.19 | 100 | 1015.1 |
| 20260831163530 | 73 | 152 | 3.0 | 7.0 | 0.04 | 0.21 | 0.19 | 100 | 1015.0 |
| 20260831163049 | 72 | 214 | 3.0 | 6.0 | 0.04 | 0.21 | 0.19 | 100 | 1015.0 |
| 20260831162530 | 72 | 146 | 2.0 | 6.0 | 0.04 | 0.21 | 0.19 | 100 | 1015.1 |
| 20260831162029 | 72 | 234 | 2.0 | 6.0 | 0.04 | 0.21 | 0.19 | 100 | 1015.0 |
| 20260831161547 | 71 | 183 | 2.0 | 6.0 | 0.04 | 0.21 | 0.19 | 100 | 1015.0 |